| time (UTC) | temp F | wind direction | speed MPH | gust MPH | rain 1hr in | rain 24hr in | rain mn in | humidity % | barometer mb |
| 20260504081514 | 56 | 109 | 0.0 | 2.0 | 0.00 | 0.00 | 0.00 | 66 | 1012.3 |
| 20260504044644 | 55 | 152 | 0.0 | 2.0 | 0.00 | 0.00 | 0.00 | 61 | 1014.7 |
| 20260504043040 | 55 | 162 | 0.0 | 3.0 | 0.00 | 0.00 | 0.00 | 61 | 1014.7 |
| 20260504041538 | 55 | 63 | 0.0 | 3.0 | 0.00 | 0.00 | 0.00 | 61 | 1014.8 |
| 20260504040044 | 55 | 96 | 0.0 | 0.0 | 0.00 | 0.00 | 0.00 | 61 | 1014.8 |
| 20260504034553 | 55 | 93 | 0.0 | 3.0 | 0.00 | 0.00 | 0.00 | 61 | 1015.0 |
| 20260504033046 | 55 | 131 | 0.0 | 2.0 | 0.00 | 0.00 | 0.00 | 60 | 1015.1 |
| 20260504031537 | 55 | 127 | 0.0 | 2.0 | 0.00 | 0.00 | 0.00 | 61 | 1015.2 |
| 20260504030044 | 55 | 138 | 0.0 | 3.0 | 0.00 | 0.00 | 0.00 | 61 | 1015.6 |
| 20260504024538 | 55 | 171 | 0.0 | 0.0 | 0.00 | 0.00 | 0.00 | 61 | 1015.6 |
| 20260504023049 | 56 | 171 | 0.0 | 0.0 | 0.00 | 0.00 | 0.00 | 61 | 1015.5 |
| 20260504021537 | 56 | 171 | 0.0 | 0.0 | 0.00 | 0.00 | 0.00 | 59 | 1015.7 |
| 20260504020038 | 57 | 171 | 0.0 | 0.0 | 0.00 | 0.00 | 0.00 | 56 | 1015.8 |
| 20260504014545 | 59 | 171 | 0.0 | 0.0 | 0.00 | 0.00 | 0.00 | 54 | 1015.8 |
| 20260504013043 | 59 | 171 | 0.0 | 0.0 | 0.00 | 0.00 | 0.00 | 52 | 1015.7 |
| 20260504011535 | 60 | 171 | 0.0 | 0.0 | 0.00 | 0.00 | 0.00 | 51 | 1015.6 |
| 20260504010038 | 61 | 171 | 0.0 | 0.0 | 0.00 | 0.00 | 0.00 | 49 | 1015.2 |
| 20260504004537 | 61 | 159 | 0.0 | 3.0 | 0.00 | 0.00 | 0.00 | 47 | 1015.0 |
| 20260504003037 | 61 | 189 | 0.0 | 3.0 | 0.00 | 0.00 | 0.00 | 47 | 1014.9 |
| 20260504001536 | 62 | 129 | 1.0 | 7.0 | 0.00 | 0.00 | 0.00 | 47 | 1014.9 |
| 20260504000036 | 62 | 200 | 0.0 | 4.0 | 0.00 | 0.00 | 0.00 | 46 | 1014.8 |
| 20260503234541 | 63 | 257 | 3.0 | 7.0 | 0.00 | 0.00 | 0.00 | 44 | 1014.9 |
| 20260503233033 | 63 | 164 | 1.0 | 6.0 | 0.00 | 0.00 | 0.00 | 44 | 1014.9 |
| 20260503231534 | 63 | 176 | 0.0 | 6.0 | 0.00 | 0.00 | 0.00 | 43 | 1015.0 |
| 20260503230031 | 64 | 202 | 1.0 | 8.0 | 0.00 | 0.00 | 0.00 | 43 | 1015.3 |
| 20260503224529 | 65 | 130 | 2.0 | 8.0 | 0.00 | 0.00 | 0.00 | 41 | 1015.6 |
| 20260503223029 | 65 | 196 | 0.0 | 9.0 | 0.00 | 0.00 | 0.00 | 39 | 1015.8 |
| 20260503221527 | 66 | 208 | 3.0 | 8.0 | 0.00 | 0.00 | 0.00 | 37 | 1016.2 |
| 20260503220028 | 66 | 201 | 3.0 | 9.0 | 0.00 | 0.00 | 0.00 | 36 | 1016.0 |
| 20260503214627 | 67 | 219 | 3.0 | 9.0 | 0.00 | 0.00 | 0.00 | 36 | 1016.6 |
| 20260503213022 | 67 | 238 | 2.0 | 9.0 | 0.00 | 0.00 | 0.00 | 38 | 1016.8 |
| 20260503211523 | 67 | 169 | 2.0 | 7.0 | 0.00 | 0.00 | 0.00 | 39 | 1016.9 |
| 20260503210025 | 67 | 126 | 3.0 | 10.0 | 0.00 | 0.00 | 0.00 | 37 | 1016.7 |
| 20260503204517 | 67 | 195 | 2.0 | 10.0 | 0.00 | 0.00 | 0.00 | 36 | 1017.2 |
| 20260503203022 | 67 | 158 | 3.0 | 8.0 | 0.00 | 0.00 | 0.00 | 36 | 1017.2 |
| 20260503201516 | 66 | 279 | 2.0 | 8.0 | 0.00 | 0.00 | 0.00 | 38 | 1017.5 |
| 20260503200014 | 66 | 198 | 1.0 | 8.0 | 0.00 | 0.00 | 0.00 | 37 | 1017.6 |
| 20260503194513 | 66 | 204 | 4.0 | 10.0 | 0.00 | 0.00 | 0.00 | 36 | 1018.5 |
| 20260503193009 | 66 | 200 | 2.0 | 8.0 | 0.00 | 0.00 | 0.00 | 37 | 1018.8 |
| 20260503191507 | 65 | 284 | 3.0 | 9.0 | 0.00 | 0.00 | 0.00 | 38 | 1019.1 |
| 20260503190003 | 64 | 98 | 1.0 | 9.0 | 0.00 | 0.00 | 0.00 | 36 | 1019.2 |
| 20260503184601 | 64 | 198 | 3.0 | 9.0 | 0.00 | 0.00 | 0.00 | 37 | 1019.5 |
| 20260503183114 | 63 | 206 | 3.0 | 9.0 | 0.00 | 0.00 | 0.00 | 39 | 1019.7 |
| 20260503181555 | 62 | 184 | 3.0 | 9.0 | 0.00 | 0.00 | 0.00 | 41 | 1019.8 |
| 20260503180052 | 62 | 214 | 1.0 | 9.0 | 0.00 | 0.00 | 0.00 | 39 | 1020.1 |
| 20260503174552 | 61 | 195 | 1.0 | 7.0 | 0.00 | 0.00 | 0.00 | 42 | 1020.3 |
| 20260503173113 | 62 | 209 | 4.0 | 7.0 | 0.00 | 0.00 | 0.00 | 41 | 1020.7 |
| 20260503171550 | 61 | 210 | 1.0 | 8.0 | 0.00 | 0.00 | 0.00 | 41 | 1020.8 |